Time,TemperatureF,DewpointF,PressureIn,WindDirection,WindDirectionDegrees,WindSpeedMPH,WindSpeedGustMPH,Humidity,HourlyPrecipIn,Conditions,Clouds,dailyrainin,SoftwareType,DateUTC
2013-07-25 00:00:00,58.0,55.7,30.04,NNE,20,0.0,0.0,92,0.00,,CLR,0.00,VWS V14.00,2013-07-25 05:00:00,
2013-07-25 00:01:00,57.8,55.5,30.03,NNE,20,0.0,0.0,92,0.00,,CLR,0.00,VWS V14.00,2013-07-25 05:01:00,
2013-07-25 00:06:00,57.8,55.5,30.03,NNE,20,0.0,0.0,92,0.00,,CLR,0.00,VWS V14.00,2013-07-25 05:06:00,
2013-07-25 00:11:00,57.7,55.7,30.03,NNE,20,0.0,0.0,93,0.00,,CLR,0.00,VWS V14.00,2013-07-25 05:11:00,
2013-07-25 00:16:00,57.6,55.3,30.03,NNE,20,0.0,0.0,92,0.00,,CLR,0.00,VWS V14.00,2013-07-25 05:16:00,
2013-07-25 00:21:00,57.5,55.2,30.03,NNE,20,0.0,0.0,92,0.00,,CLR,0.00,VWS V14.00,2013-07-25 05:21:00,
2013-07-25 00:26:00,57.4,55.1,30.03,NNE,20,0.0,0.0,92,0.00,,CLR,0.00,VWS V14.00,2013-07-25 05:26:00,
2013-07-25 00:30:00,57.3,55.0,30.03,NNE,20,0.0,0.0,92,0.00,,CLR,0.00,VWS V14.00,2013-07-25 05:30:00,
2013-07-25 00:35:00,57.3,55.3,30.04,NNE,20,0.0,0.0,93,0.00,,CLR,0.00,VWS V14.00,2013-07-25 05:35:00,
2013-07-25 00:40:00,57.1,55.1,30.04,NNE,20,0.0,0.0,93,0.00,,CLR,0.00,VWS V14.00,2013-07-25 05:40:00,
2013-07-25 00:45:00,56.9,54.9,30.04,NNE,20,0.0,0.0,93,0.00,,CLR,0.00,VWS V14.00,2013-07-25 05:45:00,
2013-07-25 00:50:00,56.8,54.8,30.04,NNE,20,0.0,0.0,93,0.00,,CLR,0.00,VWS V14.00,2013-07-25 05:50:00,
2013-07-25 00:55:00,56.7,54.7,30.04,NNE,20,0.0,0.0,93,0.00,,CLR,0.00,VWS V14.00,2013-07-25 05:55:00,
2013-07-25 01:00:00,56.7,54.7,30.04,NNE,20,0.0,0.0,93,0.00,,CLR,0.00,VWS V14.00,2013-07-25 06:00:00,
2013-07-25 01:05:00,56.7,54.7,30.04,NNE,20,0.0,0.0,93,0.00,,CLR,0.00,VWS V14.00,2013-07-25 06:05:00,
2013-07-25 01:10:00,56.6,54.6,30.04,NNE,20,0.0,0.0,93,0.00,,CLR,0.00,VWS V14.00,2013-07-25 06:10:00,
2013-07-25 01:15:00,56.6,54.6,30.04,NNE,20,0.0,0.0,93,0.00,,CLR,0.00,VWS V14.00,2013-07-25 06:15:00,
2013-07-25 01:20:00,56.6,54.6,30.04,NNE,20,0.0,0.0,93,0.00,,CLR,0.00,VWS V14.00,2013-07-25 06:20:00,
2013-07-25 01:25:00,56.5,54.5,30.04,NNE,20,0.0,0.0,93,0.00,,CLR,0.00,VWS V14.00,2013-07-25 06:25:00,
2013-07-25 01:30:00,56.3,54.3,30.04,NNE,20,0.0,0.0,93,0.00,,CLR,0.00,VWS V14.00,2013-07-25 06:30:00,
2013-07-25 01:35:00,56.2,54.2,30.05,NNE,20,0.0,0.0,93,0.00,,CLR,0.00,VWS V14.00,2013-07-25 06:35:00,
2013-07-25 01:40:00,56.2,54.2,30.05,NNE,20,0.0,0.0,93,0.00,,CLR,0.00,VWS V14.00,2013-07-25 06:40:00,
2013-07-25 01:45:00,56.1,54.1,30.05,NNE,20,0.0,0.0,93,0.00,,CLR,0.00,VWS V14.00,2013-07-25 06:45:00,
2013-07-25 01:50:00,56.1,54.1,30.05,NNE,20,0.0,0.0,93,0.00,,CLR,0.00,VWS V14.00,2013-07-25 06:50:00,
2013-07-25 01:55:00,56.1,54.1,30.05,NNE,20,0.0,0.0,93,0.00,,CLR,0.00,VWS V14.00,2013-07-25 06:55:00,
2013-07-25 02:00:00,56.1,54.1,30.05,NNE,20,0.0,0.0,93,0.00,,CLR,0.00,VWS V14.00,2013-07-25 07:00:00,
2013-07-25 02:05:00,56.1,54.1,30.05,NNE,20,0.0,0.0,93,0.00,,CLR,0.00,VWS V14.00,2013-07-25 07:05:00,
2013-07-25 02:10:00,56.1,54.1,30.05,NNE,20,0.0,0.0,93,0.00,,CLR,0.00,VWS V14.00,2013-07-25 07:10:00,
2013-07-25 02:15:00,56.0,54.0,30.05,NNE,20,0.0,0.0,93,0.00,,CLR,0.00,VWS V14.00,2013-07-25 07:15:00,
2013-07-25 02:20:00,55.9,53.9,30.05,NNE,20,0.0,0.0,93,0.00,,CLR,0.00,VWS V14.00,2013-07-25 07:20:00,
2013-07-25 02:25:00,55.9,53.9,30.05,NNE,20,0.0,0.0,93,0.00,,CLR,0.00,VWS V14.00,2013-07-25 07:25:00,
2013-07-25 02:30:00,55.8,53.8,30.04,NNE,20,0.0,0.0,93,0.00,,CLR,0.00,VWS V14.00,2013-07-25 07:30:00,
2013-07-25 02:35:00,55.7,53.7,30.04,NNE,20,0.0,0.0,93,0.00,,CLR,0.00,VWS V14.00,2013-07-25 07:35:00,
2013-07-25 02:40:00,55.7,53.7,30.04,NNE,20,0.0,0.0,93,0.00,,CLR,0.00,VWS V14.00,2013-07-25 07:40:00,
2013-07-25 02:45:00,55.6,53.6,30.04,NNE,20,0.0,0.0,93,0.00,,CLR,0.00,VWS V14.00,2013-07-25 07:45:00,
2013-07-25 02:50:00,55.6,53.6,30.04,NNE,20,0.0,0.0,93,0.00,,CLR,0.00,VWS V14.00,2013-07-25 07:50:00,
2013-07-25 02:55:00,55.5,53.5,30.04,NNE,20,0.0,0.0,93,0.00,,CLR,0.00,VWS V14.00,2013-07-25 07:55:00,
2013-07-25 03:00:00,55.5,53.5,30.04,NNE,20,0.0,0.0,93,0.00,,CLR,0.00,VWS V14.00,2013-07-25 08:00:00,
2013-07-25 03:05:00,55.4,53.4,30.05,NNE,20,0.0,0.0,93,0.00,,CLR,0.00,VWS V14.00,2013-07-25 08:05:00,
2013-07-25 03:10:00,55.3,53.3,30.05,NNE,20,0.0,0.0,93,0.00,,CLR,0.00,VWS V14.00,2013-07-25 08:10:00,
2013-07-25 03:15:00,55.3,53.3,30.05,NNE,20,0.0,0.0,93,0.00,,CLR,0.00,VWS V14.00,2013-07-25 08:15:00,
2013-07-25 03:20:00,55.2,53.2,30.05,NNE,20,0.0,0.0,93,0.00,,CLR,0.00,VWS V14.00,2013-07-25 08:20:00,
2013-07-25 03:25:00,55.2,53.2,30.05,NNE,20,0.0,0.0,93,0.00,,CLR,0.00,VWS V14.00,2013-07-25 08:25:00,
2013-07-25 03:30:00,55.3,53.3,30.06,NNE,20,0.0,0.0,93,0.00,,CLR,0.00,VWS V14.00,2013-07-25 08:30:00,
2013-07-25 03:35:00,55.3,53.6,30.06,NNE,20,0.0,0.0,94,0.00,,CLR,0.00,VWS V14.00,2013-07-25 08:35:00,
2013-07-25 03:40:00,55.2,53.2,30.05,NNE,20,0.0,0.0,93,0.00,,CLR,0.00,VWS V14.00,2013-07-25 08:40:00,
2013-07-25 03:45:00,55.1,53.1,30.06,NNE,20,0.0,0.0,93,0.00,,CLR,0.00,VWS V14.00,2013-07-25 08:45:00,
2013-07-25 03:50:00,55.0,53.0,30.06,NNE,20,0.0,0.0,93,0.00,,CLR,0.00,VWS V14.00,2013-07-25 08:50:00,
2013-07-25 03:55:00,55.0,53.0,30.06,NNE,20,0.0,0.0,93,0.00,,CLR,0.00,VWS V14.00,2013-07-25 08:55:00,
2013-07-25 04:00:00,54.9,52.9,30.06,NNE,20,0.0,0.0,93,0.00,,CLR,0.00,VWS V14.00,2013-07-25 09:00:00,
2013-07-25 04:05:00,54.8,52.8,30.06,NNE,20,0.0,0.0,93,0.00,,CLR,0.00,VWS V14.00,2013-07-25 09:05:00,
2013-07-25 04:10:00,54.8,53.1,30.06,NNE,20,0.0,0.0,94,0.00,,CLR,0.00,VWS V14.00,2013-07-25 09:10:00,
2013-07-25 04:15:00,54.7,53.0,30.06,NNE,20,0.0,0.0,94,0.00,,CLR,0.00,VWS V14.00,2013-07-25 09:15:00,
2013-07-25 04:20:00,54.6,52.9,30.06,NNE,20,0.0,0.0,94,0.00,,CLR,0.00,VWS V14.00,2013-07-25 09:20:00,
2013-07-25 04:25:00,54.6,52.9,30.06,NNE,20,0.0,0.0,94,0.00,,CLR,0.00,VWS V14.00,2013-07-25 09:25:00,
2013-07-25 04:30:00,54.7,53.0,30.06,NNE,20,0.0,0.0,94,0.00,,CLR,0.00,VWS V14.00,2013-07-25 09:30:00,
2013-07-25 04:35:00,54.6,52.9,30.06,NNE,20,0.0,0.0,94,0.00,,CLR,0.00,VWS V14.00,2013-07-25 09:35:00,
2013-07-25 04:40:00,54.6,52.9,30.06,NNE,20,0.0,0.0,94,0.00,,CLR,0.00,VWS V14.00,2013-07-25 09:40:00,
2013-07-25 04:45:00,54.5,52.5,30.06,NNE,20,0.0,0.0,93,0.00,,CLR,0.00,VWS V14.00,2013-07-25 09:45:00,
2013-07-25 04:50:00,54.5,52.5,30.07,NNE,20,0.0,0.0,93,0.00,,CLR,0.00,VWS V14.00,2013-07-25 09:50:00,
2013-07-25 04:55:00,54.6,52.6,30.07,NNE,20,0.0,0.0,93,0.00,,CLR,0.00,VWS V14.00,2013-07-25 09:55:00,
2013-07-25 05:00:00,54.7,53.0,30.07,NNE,20,0.0,0.0,94,0.00,,CLR,0.00,VWS V14.00,2013-07-25 10:00:00,
2013-07-25 05:05:00,54.6,52.6,30.07,NNE,20,0.0,0.0,93,0.00,,CLR,0.00,VWS V14.00,2013-07-25 10:05:00,
2013-07-25 05:10:00,54.5,52.8,30.07,NNE,20,0.0,0.0,94,0.00,,CLR,0.00,VWS V14.00,2013-07-25 10:10:00,
2013-07-25 05:15:00,54.3,52.6,30.07,NNE,20,0.0,0.0,94,0.00,,CLR,0.00,VWS V14.00,2013-07-25 10:15:00,
2013-07-25 05:20:00,54.2,52.5,30.07,NNE,20,0.0,0.0,94,0.00,,CLR,0.00,VWS V14.00,2013-07-25 10:20:00,
2013-07-25 05:25:00,54.2,52.5,30.08,NNE,20,0.0,0.0,94,0.00,,CLR,0.00,VWS V14.00,2013-07-25 10:25:00,
2013-07-25 05:30:00,54.1,52.4,30.08,NNE,20,0.0,0.0,94,0.00,,CLR,0.00,VWS V14.00,2013-07-25 10:30:00,
2013-07-25 05:35:00,54.2,52.5,30.08,NNE,20,0.0,0.0,94,0.00,,CLR,0.00,VWS V14.00,2013-07-25 10:35:00,
2013-07-25 05:40:00,54.2,52.5,30.09,NNE,20,0.0,0.0,94,0.00,,CLR,0.00,VWS V14.00,2013-07-25 10:40:00,
2013-07-25 05:45:00,54.1,52.4,30.08,NNE,20,0.0,0.0,94,0.00,,CLR,0.00,VWS V14.00,2013-07-25 10:45:00,
2013-07-25 05:50:00,54.0,52.3,30.09,NNE,20,0.0,0.0,94,0.00,,CLR,0.00,VWS V14.00,2013-07-25 10:50:00,
2013-07-25 05:55:00,53.9,52.2,30.09,NNE,20,0.0,0.0,94,0.00,,CLR,0.00,VWS V14.00,2013-07-25 10:55:00,
2013-07-25 06:00:00,53.9,52.2,30.09,NNE,20,0.0,0.0,94,0.00,,CLR,0.00,VWS V14.00,2013-07-25 11:00:00,
2013-07-25 06:05:00,53.8,52.1,30.09,NNE,20,0.0,0.0,94,0.00,,CLR,0.00,VWS V14.00,2013-07-25 11:05:00,
2013-07-25 06:10:00,53.8,52.1,30.09,NNE,20,0.0,0.0,94,0.00,,CLR,0.00,VWS V14.00,2013-07-25 11:10:00,
2013-07-25 06:15:00,53.9,52.2,30.09,NNE,20,0.0,0.0,94,0.00,,CLR,0.00,VWS V14.00,2013-07-25 11:15:00,
2013-07-25 06:20:00,53.9,52.2,30.09,NNE,20,0.0,0.0,94,0.00,,CLR,0.00,VWS V14.00,2013-07-25 11:20:00,
2013-07-25 06:25:00,53.9,52.2,30.09,NNE,20,0.0,0.0,94,0.00,,CLR,0.00,VWS V14.00,2013-07-25 11:25:00,
2013-07-25 06:30:00,54.0,52.3,30.10,NNE,20,0.0,0.0,94,0.00,,CLR,0.00,VWS V14.00,2013-07-25 11:30:00,
2013-07-25 06:35:00,54.1,52.4,30.10,NNE,20,0.0,0.0,94,0.00,,CLR,0.00,VWS V14.00,2013-07-25 11:35:00,
2013-07-25 06:40:00,54.3,52.6,30.10,NNE,20,0.0,0.0,94,0.00,,CLR,0.00,VWS V14.00,2013-07-25 11:40:00,
2013-07-25 06:45:00,54.4,52.7,30.09,NNE,20,0.0,0.0,94,0.00,,CLR,0.00,VWS V14.00,2013-07-25 11:45:00,
2013-07-25 06:49:00,54.5,52.8,30.09,NNE,20,0.0,0.0,94,0.00,,CLR,0.00,VWS V14.00,2013-07-25 11:49:00,
2013-07-25 06:54:00,54.7,53.0,30.09,NNE,20,0.0,0.0,94,0.00,,CLR,0.00,VWS V14.00,2013-07-25 11:54:00,
2013-07-25 06:59:00,55.0,53.3,30.10,NNE,20,0.0,0.0,94,0.00,,CLR,0.00,VWS V14.00,2013-07-25 11:59:00,
2013-07-25 07:00:00,54.5,52.8,30.09,NNE,20,0.0,0.0,94,0.00,,CLR,0.00,VWS V14.00,2013-07-25 12:00:00,
2013-07-25 07:04:00,55.3,53.6,30.10,NNE,20,0.0,0.0,94,0.00,,CLR,0.00,VWS V14.00,2013-07-25 12:04:00,
2013-07-25 07:09:00,55.8,54.1,30.11,NNE,20,0.0,0.0,94,0.00,,CLR,0.00,VWS V14.00,2013-07-25 12:09:00,
2013-07-25 07:14:00,56.4,54.7,30.11,NNE,20,0.0,0.0,94,0.00,,CLR,0.00,VWS V14.00,2013-07-25 12:14:00,
2013-07-25 07:19:00,57.1,55.4,30.11,NNE,20,0.0,0.0,94,0.00,,CLR,0.00,VWS V14.00,2013-07-25 12:19:00,
2013-07-25 07:24:00,57.9,56.2,30.10,NNE,20,0.0,0.0,94,0.00,,CLR,0.00,VWS V14.00,2013-07-25 12:24:00,
2013-07-25 07:29:00,58.9,57.2,30.10,NNE,20,0.0,0.0,94,0.00,,CLR,0.00,VWS V14.00,2013-07-25 12:29:00,
2013-07-25 07:30:00,57.2,55.5,30.11,NNE,20,0.0,0.0,94,0.00,,CLR,0.00,VWS V14.00,2013-07-25 12:30:00,
2013-07-25 07:34:00,59.3,57.6,30.11,NNE,20,0.0,0.0,94,0.00,,CLR,0.00,VWS V14.00,2013-07-25 12:34:00,
2013-07-25 07:39:00,59.3,57.6,30.11,NNE,20,0.0,0.0,94,0.00,,CLR,0.00,VWS V14.00,2013-07-25 12:39:00,
2013-07-25 07:44:00,60.0,58.3,30.11,NNE,20,0.0,0.0,94,0.00,,CLR,0.00,VWS V14.00,2013-07-25 12:44:00,
2013-07-25 07:49:00,60.9,59.2,30.11,NNE,24,0.0,0.0,94,0.00,,CLR,0.00,VWS V14.00,2013-07-25 12:49:00,
2013-07-25 07:54:00,61.9,59.2,30.11,NNE,24,0.0,0.0,91,0.00,,CLR,0.00,VWS V14.00,2013-07-25 12:54:00,
2013-07-25 07:59:00,62.8,59.2,30.11,NNE,25,0.0,0.0,88,0.00,,CLR,0.00,VWS V14.00,2013-07-25 12:59:00,
2013-07-25 08:00:00,61.2,59.5,30.11,NNE,24,0.0,0.0,94,0.00,,CLR,0.00,VWS V14.00,2013-07-25 13:00:00,
2013-07-25 08:04:00,63.5,59.2,30.11,NNE,25,0.0,0.0,86,0.00,,CLR,0.00,VWS V14.00,2013-07-25 13:04:00,
2013-07-25 08:09:00,64.2,60.3,30.11,NNE,25,0.0,0.0,87,0.00,,CLR,0.00,VWS V14.00,2013-07-25 13:09:00,
2013-07-25 08:14:00,64.7,59.8,30.12,NNE,26,0.0,0.0,84,0.00,,CLR,0.00,VWS V14.00,2013-07-25 13:14:00,
2013-07-25 08:19:00,65.0,60.0,30.11,NNE,26,0.0,0.0,84,0.00,,CLR,0.00,VWS V14.00,2013-07-25 13:19:00,
2013-07-25 08:24:00,65.5,60.2,30.11,NNE,26,0.0,0.0,83,0.00,,CLR,0.00,VWS V14.00,2013-07-25 13:24:00,
2013-07-25 08:29:00,66.0,60.3,30.11,NNE,27,0.0,0.0,82,0.00,,CLR,0.00,VWS V14.00,2013-07-25 13:29:00,
2013-07-25 08:30:00,65.2,60.2,30.11,NNE,26,0.0,0.0,84,0.00,,CLR,0.00,VWS V14.00,2013-07-25 13:30:00,
2013-07-25 08:34:00,66.4,60.7,30.11,NNE,27,0.0,0.0,82,0.00,,CLR,0.00,VWS V14.00,2013-07-25 13:34:00,
2013-07-25 08:39:00,66.8,60.1,30.12,NNE,32,0.0,0.0,79,0.00,,CLR,0.00,VWS V14.00,2013-07-25 13:39:00,
2013-07-25 08:44:00,67.2,60.8,30.12,NNE,32,0.0,0.0,80,0.00,,CLR,0.00,VWS V14.00,2013-07-25 13:44:00,
2013-07-25 08:49:00,67.6,60.9,30.12,NNE,32,0.0,0.0,79,0.00,,CLR,0.00,VWS V14.00,2013-07-25 13:49:00,
2013-07-25 08:54:00,67.9,61.2,30.12,NNE,32,0.0,0.0,79,0.00,,CLR,0.00,VWS V14.00,2013-07-25 13:54:00,
2013-07-25 08:59:00,68.2,61.1,30.12,NNE,32,0.0,0.0,78,0.00,,CLR,0.00,VWS V14.00,2013-07-25 13:59:00,
2013-07-25 09:00:00,67.7,61.0,30.12,NNE,32,0.0,0.0,79,0.00,,CLR,0.00,VWS V14.00,2013-07-25 14:00:00,
2013-07-25 09:04:00,68.7,61.9,30.13,NE,36,0.0,0.0,79,0.00,,CLR,0.00,VWS V14.00,2013-07-25 14:04:00,
2013-07-25 09:09:00,69.1,61.6,30.13,NE,37,0.0,0.0,77,0.00,,CLR,0.00,VWS V14.00,2013-07-25 14:09:00,
2013-07-25 09:14:00,69.8,62.3,30.12,NE,37,0.0,0.0,77,0.00,,CLR,0.00,VWS V14.00,2013-07-25 14:14:00,
2013-07-25 09:19:00,70.4,61.7,30.12,NE,37,0.0,0.0,74,0.00,,CLR,0.00,VWS V14.00,2013-07-25 14:19:00,
2013-07-25 09:24:00,70.9,60.6,30.12,NE,43,0.0,0.0,70,0.00,,CLR,0.00,VWS V14.00,2013-07-25 14:24:00,
2013-07-25 09:29:00,71.1,60.8,30.12,NNE,30,0.0,0.0,70,0.00,,CLR,0.00,VWS V14.00,2013-07-25 14:29:00,
2013-07-25 09:30:00,70.6,61.9,30.12,NE,37,0.0,0.0,74,0.00,,CLR,0.00,VWS V14.00,2013-07-25 14:30:00,
2013-07-25 09:34:00,71.2,60.5,30.12,NE,40,0.0,0.0,69,0.00,,CLR,0.00,VWS V14.00,2013-07-25 14:34:00,
2013-07-25 09:39:00,71.4,59.9,30.12,NE,40,0.0,0.0,67,0.00,,CLR,0.00,VWS V14.00,2013-07-25 14:39:00,
2013-07-25 09:44:00,71.7,61.4,30.12,NE,53,0.0,0.0,70,0.00,,CLR,0.00,VWS V14.00,2013-07-25 14:44:00,
2013-07-25 09:49:00,72.0,62.1,30.11,NE,53,0.0,0.0,71,0.00,,CLR,0.00,VWS V14.00,2013-07-25 14:49:00,
2013-07-25 09:54:00,72.8,62.5,30.12,NE,53,0.0,0.0,70,0.00,,CLR,0.00,VWS V14.00,2013-07-25 14:54:00,
2013-07-25 09:59:00,73.3,61.3,30.12,NNE,30,0.0,0.0,66,0.00,,CLR,0.00,VWS V14.00,2013-07-25 14:59:00,
2013-07-25 10:00:00,72.2,63.1,30.11,NE,53,0.0,0.0,73,0.00,,CLR,0.00,VWS V14.00,2013-07-25 15:00:00,
2013-07-25 10:04:00,73.2,59.9,30.12,ENE,63,0.0,0.0,63,0.00,,CLR,0.00,VWS V14.00,2013-07-25 15:04:00,
2013-07-25 10:09:00,73.3,59.5,30.12,NE,39,0.0,0.0,62,0.00,,CLR,0.00,VWS V14.00,2013-07-25 15:09:00,
2013-07-25 10:14:00,73.4,60.9,30.12,NNE,30,0.0,0.0,65,0.00,,CLR,0.00,VWS V14.00,2013-07-25 15:14:00,
2013-07-25 10:19:00,73.7,60.3,30.12,NE,52,0.0,0.0,63,0.00,,CLR,0.00,VWS V14.00,2013-07-25 15:19:00,
2013-07-25 10:24:00,73.8,62.2,30.13,NNE,19,0.0,0.0,67,0.00,,CLR,0.00,VWS V14.00,2013-07-25 15:24:00,
2013-07-25 10:29:00,73.8,60.4,30.12,ENE,64,0.0,0.0,63,0.00,,CLR,0.00,VWS V14.00,2013-07-25 15:29:00,
2013-07-25 10:30:00,73.7,60.3,30.12,ENE,71,0.0,0.0,63,0.00,,CLR,0.00,VWS V14.00,2013-07-25 15:30:00,
2013-07-25 10:34:00,74.0,59.7,30.13,ENE,57,6.0,8.0,61,0.00,,CLR,0.00,VWS V14.00,2013-07-25 15:34:00,
2013-07-25 10:39:00,73.9,58.7,30.13,NNE,26,2.0,8.0,59,0.00,,CLR,0.00,VWS V14.00,2013-07-25 15:39:00,
2013-07-25 10:44:00,74.4,63.2,30.13,NE,38,0.0,8.0,68,0.00,,CLR,0.00,VWS V14.00,2013-07-25 15:44:00,
2013-07-25 10:49:00,74.6,58.4,30.13,NE,40,4.0,9.0,57,0.00,,CLR,0.00,VWS V14.00,2013-07-25 15:49:00,
2013-07-25 10:54:00,74.8,61.4,30.13,NE,49,6.0,7.0,63,0.00,,CLR,0.00,VWS V14.00,2013-07-25 15:54:00,
2013-07-25 10:59:00,75.1,60.3,30.14,NE,42,0.0,9.0,60,0.00,,CLR,0.00,VWS V14.00,2013-07-25 15:59:00,
2013-07-25 11:00:00,74.7,59.4,30.13,NW,312,2.0,9.0,59,0.00,,CLR,0.00,VWS V14.00,2013-07-25 16:00:00,
2013-07-25 11:04:00,75.3,60.5,30.14,West,269,2.0,9.0,60,0.00,,CLR,0.00,VWS V14.00,2013-07-25 16:04:00,
2013-07-25 11:09:00,75.4,59.6,30.14,NW,309,6.0,9.0,58,0.00,,CLR,0.00,VWS V14.00,2013-07-25 16:09:00,
2013-07-25 11:14:00,75.3,60.0,30.14,NE,47,4.0,9.0,59,0.00,,CLR,0.00,VWS V14.00,2013-07-25 16:14:00,
2013-07-25 11:19:00,75.6,61.2,30.14,North,349,5.0,10.0,61,0.00,,CLR,0.00,VWS V14.00,2013-07-25 16:19:00,
2013-07-25 11:24:00,75.3,59.5,30.14,NE,50,6.0,10.0,58,0.00,,CLR,0.00,VWS V14.00,2013-07-25 16:24:00,
2013-07-25 11:29:00,75.3,58.5,30.14,NE,54,5.0,11.0,56,0.00,,CLR,0.00,VWS V14.00,2013-07-25 16:29:00,
2013-07-25 11:30:00,75.5,60.2,30.14,NE,51,1.0,10.0,59,0.00,,CLR,0.00,VWS V14.00,2013-07-25 16:30:00,
2013-07-25 11:34:00,75.3,59.0,30.13,WNW,300,2.0,11.0,57,0.00,,CLR,0.00,VWS V14.00,2013-07-25 16:34:00,
2013-07-25 11:39:00,75.4,61.9,30.13,NNE,29,6.0,11.0,63,0.00,,CLR,0.00,VWS V14.00,2013-07-25 16:39:00,
2013-07-25 11:47:00,75.6,61.2,30.14,NNW,348,4.0,11.0,61,0.00,,CLR,0.00,VWS V14.00,2013-07-25 16:47:00,
2013-07-25 11:52:00,75.9,60.1,30.14,NE,40,8.0,8.0,58,0.00,,CLR,0.00,VWS V14.00,2013-07-25 16:52:00,
2013-07-25 11:57:00,76.0,60.7,30.14,ENE,62,8.0,8.0,59,0.00,,CLR,0.00,VWS V14.00,2013-07-25 16:57:00,
2013-07-25 12:00:00,75.8,60.9,30.14,NNE,21,6.0,11.0,60,0.00,,CLR,0.00,VWS V14.00,2013-07-25 17:00:00,
2013-07-25 12:02:00,76.0,61.1,30.14,NNW,342,2.0,8.0,60,0.00,,CLR,0.00,VWS V14.00,2013-07-25 17:02:00,
2013-07-25 12:07:00,76.1,59.8,30.14,ENE,74,2.0,8.0,57,0.00,,CLR,0.00,VWS V14.00,2013-07-25 17:07:00,
2013-07-25 12:12:00,75.7,61.8,30.14,North,355,3.0,8.0,62,0.00,,CLR,0.00,VWS V14.00,2013-07-25 17:12:00,
2013-07-25 12:17:00,75.5,62.0,30.14,NNW,342,5.0,8.0,63,0.00,,CLR,0.00,VWS V14.00,2013-07-25 17:17:00,
2013-07-25 12:22:00,75.8,60.9,30.14,North,11,3.0,4.0,60,0.00,,CLR,0.00,VWS V14.00,2013-07-25 17:22:00,
2013-07-25 12:27:00,76.1,58.3,30.14,NW,304,1.0,9.0,54,0.00,,CLR,0.00,VWS V14.00,2013-07-25 17:27:00,
2013-07-25 12:30:00,75.7,62.7,30.14,West,280,3.0,8.0,64,0.00,,CLR,0.00,VWS V14.00,2013-07-25 17:30:00,
2013-07-25 12:32:00,76.2,59.9,30.14,NE,40,7.0,9.0,57,0.00,,CLR,0.00,VWS V14.00,2013-07-25 17:32:00,
2013-07-25 12:37:00,76.4,58.5,30.14,ENE,59,6.0,10.0,54,0.00,,CLR,0.00,VWS V14.00,2013-07-25 17:37:00,
2013-07-25 12:42:00,76.5,61.1,30.13,NNE,24,4.0,10.0,59,0.00,,CLR,0.00,VWS V14.00,2013-07-25 17:42:00,
2013-07-25 12:47:00,76.4,58.5,30.13,ENE,57,1.0,10.0,54,0.00,,CLR,0.00,VWS V14.00,2013-07-25 17:47:00,
2013-07-25 12:52:00,76.2,59.4,30.13,NE,40,5.0,7.0,56,0.00,,CLR,0.00,VWS V14.00,2013-07-25 17:52:00,
2013-07-25 12:57:00,76.5,61.1,30.13,NNE,17,6.0,8.0,59,0.00,,CLR,0.00,VWS V14.00,2013-07-25 17:57:00,
2013-07-25 13:00:00,76.2,61.8,30.13,NNE,22,3.0,10.0,61,0.00,,CLR,0.00,VWS V14.00,2013-07-25 18:00:00,
2013-07-25 13:02:00,76.6,60.2,30.13,NNE,33,5.0,8.0,57,0.00,,CLR,0.00,VWS V14.00,2013-07-25 18:02:00,
2013-07-25 13:07:00,76.8,60.9,30.13,NNW,348,2.0,8.0,58,0.00,,CLR,0.00,VWS V14.00,2013-07-25 18:07:00,
2013-07-25 13:12:00,77.1,60.7,30.13,NE,44,8.0,8.0,57,0.00,,CLR,0.00,VWS V14.00,2013-07-25 18:12:00,
2013-07-25 13:17:00,77.3,59.4,30.13,ENE,59,4.0,8.0,54,0.00,,CLR,0.00,VWS V14.00,2013-07-25 18:17:00,
2013-07-25 13:22:00,77.3,58.8,30.13,NE,44,3.0,5.0,53,0.00,,CLR,0.00,VWS V14.00,2013-07-25 18:22:00,
2013-07-25 13:27:00,77.1,58.1,30.12,SSE,147,0.0,8.0,52,0.00,,CLR,0.00,VWS V14.00,2013-07-25 18:27:00,
2013-07-25 13:30:00,77.3,59.9,30.13,NE,44,4.0,9.0,55,0.00,,CLR,0.00,VWS V14.00,2013-07-25 18:30:00,
2013-07-25 13:32:00,77.2,60.8,30.12,East,93,0.0,8.0,57,0.00,,CLR,0.00,VWS V14.00,2013-07-25 18:32:00,
2013-07-25 13:37:00,77.6,60.2,30.12,NE,38,6.0,9.0,55,0.00,,CLR,0.00,VWS V14.00,2013-07-25 18:37:00,
2013-07-25 13:42:00,77.6,59.7,30.12,NE,40,5.0,9.0,54,0.00,,CLR,0.00,VWS V14.00,2013-07-25 18:42:00,
2013-07-25 13:47:00,77.6,58.6,30.12,ENE,58,5.0,9.0,52,0.00,,CLR,0.00,VWS V14.00,2013-07-25 18:47:00,
2013-07-25 13:52:00,77.6,59.7,30.12,NE,40,4.0,4.0,54,0.00,,CLR,0.00,VWS V14.00,2013-07-25 18:52:00,
2013-07-25 13:57:00,77.7,59.8,30.11,NE,42,0.0,4.0,54,0.00,,CLR,0.00,VWS V14.00,2013-07-25 18:57:00,
2013-07-25 14:00:00,77.6,59.1,30.12,NE,55,4.0,9.0,53,0.00,,CLR,0.00,VWS V14.00,2013-07-25 19:00:00,
2013-07-25 14:02:00,77.6,59.1,30.11,NE,42,2.0,6.0,53,0.00,,CLR,0.00,VWS V14.00,2013-07-25 19:02:00,
2013-07-25 14:07:00,77.8,58.8,30.11,NNE,27,5.0,11.0,52,0.00,,CLR,0.00,VWS V14.00,2013-07-25 19:07:00,
2013-07-25 14:12:00,77.9,58.9,30.12,NE,46,2.0,11.0,52,0.00,,CLR,0.00,VWS V14.00,2013-07-25 19:12:00,
2013-07-25 14:17:00,78.1,61.1,30.12,NE,34,2.0,11.0,56,0.00,,CLR,0.00,VWS V14.00,2013-07-25 19:17:00,
2013-07-25 14:22:00,78.3,58.2,30.12,NE,40,3.0,10.0,50,0.00,,CLR,0.00,VWS V14.00,2013-07-25 19:22:00,
2013-07-25 14:27:00,78.2,59.7,30.11,NNE,32,4.0,10.0,53,0.00,,CLR,0.00,VWS V14.00,2013-07-25 19:27:00,
2013-07-25 14:30:00,78.3,59.8,30.12,NNE,30,7.0,11.0,53,0.00,,CLR,0.00,VWS V14.00,2013-07-25 19:30:00,
2013-07-25 14:32:00,78.4,60.4,30.11,North,355,2.0,10.0,54,0.00,,CLR,0.00,VWS V14.00,2013-07-25 19:32:00,
2013-07-25 14:37:00,78.2,59.7,30.11,NNE,25,4.0,10.0,53,0.00,,CLR,0.00,VWS V14.00,2013-07-25 19:37:00,
2013-07-25 14:42:00,77.9,58.9,30.11,ENE,76,0.0,10.0,52,0.00,,CLR,0.00,VWS V14.00,2013-07-25 19:42:00,
2013-07-25 14:47:00,77.8,58.8,30.11,NNW,342,3.0,10.0,52,0.00,,CLR,0.00,VWS V14.00,2013-07-25 19:47:00,
2013-07-25 14:52:00,78.2,62.2,30.11,NNW,333,3.0,3.0,58,0.00,,CLR,0.00,VWS V14.00,2013-07-25 19:52:00,
2013-07-25 14:57:00,78.6,60.6,30.11,NNE,19,5.0,7.0,54,0.00,,CLR,0.00,VWS V14.00,2013-07-25 19:57:00,
2013-07-25 15:00:00,78.1,63.1,30.11,NNW,334,2.0,10.0,60,0.00,,CLR,0.00,VWS V14.00,2013-07-25 20:00:00,
2013-07-25 15:02:00,78.7,60.7,30.11,North,11,1.0,8.0,54,0.00,,CLR,0.00,VWS V14.00,2013-07-25 20:02:00,
2013-07-25 15:07:00,78.7,63.7,30.10,NE,42,0.0,8.0,60,0.00,,CLR,0.00,VWS V14.00,2013-07-25 20:07:00,
2013-07-25 15:12:00,78.9,59.2,30.11,North,355,5.0,8.0,51,0.00,,CLR,0.00,VWS V14.00,2013-07-25 20:12:00,
2013-07-25 15:17:00,78.9,61.9,30.11,NW,306,4.0,8.0,56,0.00,,CLR,0.00,VWS V14.00,2013-07-25 20:17:00,
2013-07-25 15:22:00,78.6,60.6,30.11,NE,46,1.0,5.0,54,0.00,,CLR,0.00,VWS V14.00,2013-07-25 20:22:00,
2013-07-25 15:27:00,78.4,61.4,30.11,ESE,119,0.0,5.0,56,0.00,,CLR,0.00,VWS V14.00,2013-07-25 20:27:00,
2013-07-25 15:30:00,78.6,61.6,30.11,ENE,61,4.0,8.0,56,0.00,,CLR,0.00,VWS V14.00,2013-07-25 20:30:00,
2013-07-25 15:32:00,78.4,59.9,30.11,NNE,27,4.0,6.0,53,0.00,,CLR,0.00,VWS V14.00,2013-07-25 20:32:00,
2013-07-25 15:37:00,78.4,60.4,30.11,NNW,345,0.0,6.0,54,0.00,,CLR,0.00,VWS V14.00,2013-07-25 20:37:00,
2013-07-25 15:42:00,78.5,62.0,30.10,North,350,2.0,6.0,57,0.00,,CLR,0.00,VWS V14.00,2013-07-25 20:42:00,
2013-07-25 15:47:00,78.6,59.5,30.10,North,350,2.0,6.0,52,0.00,,CLR,0.00,VWS V14.00,2013-07-25 20:47:00,
2013-07-25 15:52:00,78.3,61.8,30.10,NW,325,4.0,4.0,57,0.00,,CLR,0.00,VWS V14.00,2013-07-25 20:52:00,
2013-07-25 15:57:00,78.5,61.5,30.10,North,360,3.0,5.0,56,0.00,,CLR,0.00,VWS V14.00,2013-07-25 20:57:00,
2013-07-25 16:00:00,78.3,61.3,30.10,NW,325,0.0,0.0,56,0.00,,CLR,0.00,VWS V14.00,2013-07-25 21:00:00,
2013-07-25 16:02:00,78.7,61.2,30.10,NE,39,5.0,6.0,55,0.00,,CLR,0.00,VWS V14.00,2013-07-25 21:02:00,
2013-07-25 16:07:00,79.0,61.5,30.10,NNE,27,2.0,6.0,55,0.00,,CLR,0.00,VWS V14.00,2013-07-25 21:07:00,
2013-07-25 16:12:00,79.5,59.2,30.10,WNW,300,0.0,6.0,50,0.00,,CLR,0.00,VWS V14.00,2013-07-25 21:12:00,
2013-07-25 16:17:00,79.6,62.0,30.10,WNW,300,0.0,6.0,55,0.00,,CLR,0.00,VWS V14.00,2013-07-25 21:17:00,
2013-07-25 16:22:00,79.4,65.7,30.10,WNW,292,0.0,4.0,63,0.00,,CLR,0.00,VWS V14.00,2013-07-25 21:22:00,
2013-07-25 16:27:00,79.1,62.6,30.10,NW,319,0.0,4.0,57,0.00,,CLR,0.00,VWS V14.00,2013-07-25 21:27:00,
2013-07-25 16:30:00,79.4,61.3,30.10,WNW,291,0.0,6.0,54,0.00,,CLR,0.00,VWS V14.00,2013-07-25 21:30:00,
2013-07-25 16:32:00,79.4,61.3,30.10,NW,321,3.0,4.0,54,0.00,,CLR,0.00,VWS V14.00,2013-07-25 21:32:00,
2013-07-25 16:37:00,79.5,64.4,30.10,NW,317,0.0,4.0,60,0.00,,CLR,0.00,VWS V14.00,2013-07-25 21:37:00,
2013-07-25 16:42:00,79.6,58.2,30.09,WNW,298,0.0,4.0,48,0.00,,CLR,0.00,VWS V14.00,2013-07-25 21:42:00,
2013-07-25 16:47:00,79.6,58.8,30.09,NNE,21,4.0,6.0,49,0.00,,CLR,0.00,VWS V14.00,2013-07-25 21:47:00,
2013-07-25 16:52:00,79.6,60.4,30.09,NNE,33,3.0,5.0,52,0.00,,CLR,0.00,VWS V14.00,2013-07-25 21:52:00,
2013-07-25 16:57:00,79.5,64.4,30.09,NE,36,1.0,7.0,60,0.00,,CLR,0.00,VWS V14.00,2013-07-25 21:57:00,
2013-07-25 17:00:00,79.5,61.4,30.09,NNE,22,0.0,6.0,54,0.00,,CLR,0.00,VWS V14.00,2013-07-25 22:00:00,
2013-07-25 17:02:00,79.2,60.6,30.09,NNE,24,4.0,8.0,53,0.00,,CLR,0.00,VWS V14.00,2013-07-25 22:02:00,
2013-07-25 17:07:00,78.7,61.2,30.09,NE,40,6.0,8.0,55,0.00,,CLR,0.00,VWS V14.00,2013-07-25 22:07:00,
2013-07-25 17:12:00,78.3,58.7,30.09,East,85,2.0,8.0,51,0.00,,CLR,0.00,VWS V14.00,2013-07-25 22:12:00,
2013-07-25 17:17:00,78.0,61.0,30.08,NE,44,2.0,8.0,56,0.00,,CLR,0.00,VWS V14.00,2013-07-25 22:17:00,
2013-07-25 17:22:00,77.5,59.0,30.09,NE,44,1.0,2.0,53,0.00,,CLR,0.00,VWS V14.00,2013-07-25 22:22:00,
2013-07-25 17:27:00,77.1,64.0,30.08,NE,44,2.0,3.0,64,0.00,,CLR,0.00,VWS V14.00,2013-07-25 22:27:00,
2013-07-25 17:30:00,77.7,60.8,30.09,NE,44,0.0,8.0,56,0.00,,CLR,0.00,VWS V14.00,2013-07-25 22:30:00,
2013-07-25 17:32:00,76.6,64.8,30.08,NE,44,0.0,3.0,67,0.00,,CLR,0.00,VWS V14.00,2013-07-25 22:32:00,
2013-07-25 17:37:00,76.7,64.9,30.08,NE,44,0.0,3.0,67,0.00,,CLR,0.00,VWS V14.00,2013-07-25 22:37:00,
2013-07-25 17:42:00,77.3,61.4,30.08,NE,44,0.0,3.0,58,0.00,,CLR,0.00,VWS V14.00,2013-07-25 22:42:00,
2013-07-25 17:47:00,77.5,61.6,30.08,NE,44,0.0,3.0,58,0.00,,CLR,0.00,VWS V14.00,2013-07-25 22:47:00,
2013-07-25 17:52:00,78.8,61.8,30.08,NE,44,1.0,2.0,56,0.00,,CLR,0.00,VWS V14.00,2013-07-25 22:52:00,
2013-07-25 17:57:00,79.3,62.8,30.08,NE,44,0.0,3.0,57,0.00,,CLR,0.00,VWS V14.00,2013-07-25 22:57:00,
2013-07-25 18:00:00,78.6,61.1,30.08,NE,44,1.0,1.0,55,0.00,,CLR,0.00,VWS V14.00,2013-07-25 23:00:00,
2013-07-25 18:02:00,79.6,62.0,30.09,NE,44,0.0,3.0,55,0.00,,CLR,0.00,VWS V14.00,2013-07-25 23:02:00,
2013-07-25 18:07:00,79.9,62.8,30.09,NE,44,0.0,3.0,56,0.00,,CLR,0.00,VWS V14.00,2013-07-25 23:07:00,
2013-07-25 18:12:00,80.2,63.1,30.09,SSW,205,0.0,3.0,56,0.00,,CLR,0.00,VWS V14.00,2013-07-25 23:12:00,
2013-07-25 18:17:00,80.1,59.8,30.08,SSW,205,0.0,3.0,50,0.00,,CLR,0.00,VWS V14.00,2013-07-25 23:17:00,
2013-07-25 18:22:00,80.5,63.9,30.09,SSW,205,0.0,0.0,57,0.00,,CLR,0.00,VWS V14.00,2013-07-25 23:22:00,
2013-07-25 18:27:00,79.4,62.3,30.09,SSW,205,0.0,0.0,56,0.00,,CLR,0.00,VWS V14.00,2013-07-25 23:27:00,
2013-07-25 18:30:00,80.4,63.8,30.08,SSW,205,0.0,3.0,57,0.00,,CLR,0.00,VWS V14.00,2013-07-25 23:30:00,
2013-07-25 18:32:00,78.5,63.5,30.09,SSW,205,0.0,0.0,60,0.00,,CLR,0.00,VWS V14.00,2013-07-25 23:32:00,
2013-07-25 18:37:00,78.0,62.5,30.09,SSW,205,0.0,0.0,59,0.00,,CLR,0.00,VWS V14.00,2013-07-25 23:37:00,
2013-07-25 18:42:00,77.2,62.7,30.09,SSW,205,0.0,0.0,61,0.00,,CLR,0.00,VWS V14.00,2013-07-25 23:42:00,
2013-07-25 18:47:00,76.5,64.3,30.09,SSW,205,0.0,0.0,66,0.00,,CLR,0.00,VWS V14.00,2013-07-25 23:47:00,
2013-07-25 18:52:00,75.9,63.3,30.10,SSW,205,0.0,0.0,65,0.00,,CLR,0.00,VWS V14.00,2013-07-25 23:52:00,
2013-07-25 18:57:00,75.1,62.5,30.10,SSW,205,0.0,0.0,65,0.00,,CLR,0.00,VWS V14.00,2013-07-25 23:57:00,
2013-07-25 19:00:00,76.0,63.8,30.09,SSW,205,0.0,0.0,66,0.00,,CLR,0.00,VWS V14.00,2013-07-26 00:00:00,
2013-07-25 19:02:00,74.6,63.3,30.09,SSW,205,0.0,0.0,68,0.00,,CLR,0.00,VWS V14.00,2013-07-26 00:02:00,
2013-07-25 19:07:00,74.5,63.3,30.09,SSW,205,0.0,0.0,68,0.00,,CLR,0.00,VWS V14.00,2013-07-26 00:07:00,
2013-07-25 19:12:00,74.2,63.4,30.09,SSW,205,0.0,0.0,69,0.00,,CLR,0.00,VWS V14.00,2013-07-26 00:12:00,
2013-07-25 19:17:00,73.2,63.2,30.09,SSW,205,0.0,0.0,71,0.00,,CLR,0.00,VWS V14.00,2013-07-26 00:17:00,
2013-07-25 19:22:00,72.0,61.7,30.09,SSW,205,0.0,0.0,70,0.00,,CLR,0.00,VWS V14.00,2013-07-26 00:22:00,
2013-07-25 19:27:00,71.2,61.3,30.09,SSW,205,0.0,0.0,71,0.00,,CLR,0.00,VWS V14.00,2013-07-26 00:27:00,
2013-07-25 19:30:00,72.4,62.1,30.09,SSW,205,0.0,0.0,70,0.00,,CLR,0.00,VWS V14.00,2013-07-26 00:30:00,
2013-07-25 19:32:00,70.9,62.2,30.09,SSW,205,0.0,0.0,74,0.00,,CLR,0.00,VWS V14.00,2013-07-26 00:32:00,
2013-07-25 19:37:00,70.3,62.4,30.09,SSW,205,0.0,0.0,76,0.00,,CLR,0.00,VWS V14.00,2013-07-26 00:37:00,
2013-07-25 19:42:00,70.0,63.2,30.09,SSW,205,0.0,0.0,79,0.00,,CLR,0.00,VWS V14.00,2013-07-26 00:42:00,
2013-07-25 19:47:00,69.6,63.2,30.09,SSW,205,0.0,0.0,80,0.00,,CLR,0.00,VWS V14.00,2013-07-26 00:47:00,
2013-07-25 19:52:00,69.4,63.3,30.09,SSW,205,0.0,0.0,81,0.00,,CLR,0.00,VWS V14.00,2013-07-26 00:52:00,
2013-07-25 19:57:00,68.8,63.1,30.09,SSW,205,0.0,0.0,82,0.00,,CLR,0.00,VWS V14.00,2013-07-26 00:57:00,
2013-07-25 20:00:00,69.5,63.1,30.09,SSW,205,0.0,0.0,80,0.00,,CLR,0.00,VWS V14.00,2013-07-26 01:00:00,
2013-07-25 20:02:00,68.2,62.5,30.09,SSW,205,0.0,0.0,82,0.00,,CLR,0.00,VWS V14.00,2013-07-26 01:02:00,
2013-07-25 20:07:00,67.8,62.5,30.09,SSW,205,0.0,0.0,83,0.00,,CLR,0.00,VWS V14.00,2013-07-26 01:07:00,
2013-07-25 20:12:00,67.3,62.3,30.08,SSW,205,0.0,0.0,84,0.00,,CLR,0.00,VWS V14.00,2013-07-26 01:12:00,
2013-07-25 20:17:00,67.0,62.3,30.08,SSW,205,0.0,0.0,85,0.00,,CLR,0.00,VWS V14.00,2013-07-26 01:17:00,
2013-07-25 20:22:00,66.6,62.3,30.08,SSW,205,0.0,0.0,86,0.00,,CLR,0.00,VWS V14.00,2013-07-26 01:22:00,
2013-07-25 20:27:00,66.4,62.7,30.09,SSW,205,0.0,0.0,88,0.00,,CLR,0.00,VWS V14.00,2013-07-26 01:27:00,
2013-07-25 20:30:00,66.7,62.0,30.08,SSW,205,0.0,0.0,85,0.00,,CLR,0.00,VWS V14.00,2013-07-26 01:30:00,
2013-07-25 20:32:00,66.1,62.5,30.09,SSW,205,0.0,0.0,88,0.00,,CLR,0.00,VWS V14.00,2013-07-26 01:32:00,
2013-07-25 20:37:00,65.8,62.2,30.09,SSW,205,0.0,0.0,88,0.00,,CLR,0.00,VWS V14.00,2013-07-26 01:37:00,
2013-07-25 20:42:00,65.4,62.1,30.09,SSW,205,0.0,0.0,89,0.00,,CLR,0.00,VWS V14.00,2013-07-26 01:42:00,
2013-07-25 20:47:00,65.1,61.8,30.09,SSW,205,0.0,0.0,89,0.00,,CLR,0.00,VWS V14.00,2013-07-26 01:47:00,
2013-07-25 20:52:00,64.8,61.5,30.09,SSW,205,0.0,0.0,89,0.00,,CLR,0.00,VWS V14.00,2013-07-26 01:52:00,
2013-07-25 20:57:00,64.5,61.2,30.09,SSW,205,0.0,0.0,89,0.00,,CLR,0.00,VWS V14.00,2013-07-26 01:57:00,
2013-07-25 21:00:00,64.9,61.6,30.09,SSW,205,0.0,0.0,89,0.00,,CLR,0.00,VWS V14.00,2013-07-26 02:00:00,
2013-07-25 21:02:00,64.3,61.3,30.09,SSW,205,0.0,0.0,90,0.00,,CLR,0.00,VWS V14.00,2013-07-26 02:02:00,
2013-07-25 21:07:00,63.9,60.9,30.09,SSW,205,0.0,0.0,90,0.00,,CLR,0.00,VWS V14.00,2013-07-26 02:07:00,
2013-07-25 21:12:00,63.5,60.5,30.09,SSW,205,0.0,0.0,90,0.00,,CLR,0.00,VWS V14.00,2013-07-26 02:12:00,
2013-07-25 21:17:00,63.3,60.3,30.09,SSW,205,0.0,0.0,90,0.00,,CLR,0.00,VWS V14.00,2013-07-26 02:17:00,
2013-07-25 21:22:00,63.2,60.5,30.09,SSW,205,0.0,0.0,91,0.00,,CLR,0.00,VWS V14.00,2013-07-26 02:22:00,
2013-07-25 21:27:00,63.0,60.3,30.09,SSW,205,0.0,0.0,91,0.00,,CLR,0.00,VWS V14.00,2013-07-26 02:27:00,
2013-07-25 21:30:00,63.2,60.5,30.09,SSW,205,0.0,0.0,91,0.00,,CLR,0.00,VWS V14.00,2013-07-26 02:30:00,
2013-07-25 21:32:00,62.9,60.2,30.10,SSW,205,0.0,0.0,91,0.00,,CLR,0.00,VWS V14.00,2013-07-26 02:32:00,
2013-07-25 21:37:00,62.7,60.0,30.10,SSW,205,0.0,0.0,91,0.00,,CLR,0.00,VWS V14.00,2013-07-26 02:37:00,
2013-07-25 21:42:00,62.6,59.9,30.10,SSW,205,0.0,0.0,91,0.00,,CLR,0.00,VWS V14.00,2013-07-26 02:42:00,
2013-07-25 21:47:00,62.4,60.0,30.10,SSW,205,0.0,0.0,92,0.00,,CLR,0.00,VWS V14.00,2013-07-26 02:47:00,
2013-07-25 21:52:00,62.2,59.8,30.10,SSW,205,0.0,0.0,92,0.00,,CLR,0.00,VWS V14.00,2013-07-26 02:52:00,
2013-07-25 21:57:00,62.2,59.8,30.10,SSW,205,0.0,0.0,92,0.00,,CLR,0.00,VWS V14.00,2013-07-26 02:57:00,
2013-07-25 22:00:00,62.3,60.0,30.10,SSW,205,0.0,0.0,92,0.00,,CLR,0.00,VWS V14.00,2013-07-26 03:00:00,
2013-07-25 22:03:00,62.1,59.8,30.10,SSW,205,0.0,0.0,92,0.00,,CLR,0.00,VWS V14.00,2013-07-26 03:03:00,
2013-07-25 22:08:00,62.1,59.8,30.10,SSW,205,0.0,0.0,92,0.00,,CLR,0.00,VWS V14.00,2013-07-26 03:08:00,
2013-07-25 22:13:00,62.0,59.7,30.11,SSW,205,0.0,0.0,92,0.00,,CLR,0.00,VWS V14.00,2013-07-26 03:13:00,
2013-07-25 22:18:00,61.9,59.5,30.11,SSW,205,0.0,0.0,92,0.00,,CLR,0.00,VWS V14.00,2013-07-26 03:18:00,
2013-07-25 22:23:00,61.7,59.4,30.11,SSW,205,0.0,0.0,92,0.00,,CLR,0.00,VWS V14.00,2013-07-26 03:23:00,
2013-07-25 22:28:00,61.7,59.4,30.11,SSW,205,0.0,0.0,92,0.00,,CLR,0.00,VWS V14.00,2013-07-26 03:28:00,
2013-07-25 22:30:00,61.8,59.5,30.11,SSW,205,0.0,0.0,92,0.00,,CLR,0.00,VWS V14.00,2013-07-26 03:30:00,
2013-07-25 22:33:00,61.6,59.3,30.11,SSW,205,0.0,0.0,92,0.00,,CLR,0.00,VWS V14.00,2013-07-26 03:33:00,
2013-07-25 22:38:00,61.4,59.1,30.11,SSW,205,0.0,0.0,92,0.00,,CLR,0.00,VWS V14.00,2013-07-26 03:38:00,
2013-07-25 22:43:00,61.4,59.1,30.10,SSW,205,0.0,0.0,92,0.00,,CLR,0.00,VWS V14.00,2013-07-26 03:43:00,
2013-07-25 22:48:00,61.3,59.3,30.10,SSW,205,0.0,0.0,93,0.00,,CLR,0.00,VWS V14.00,2013-07-26 03:48:00,
2013-07-25 22:53:00,61.2,59.2,30.10,SSW,205,0.0,0.0,93,0.00,,CLR,0.00,VWS V14.00,2013-07-26 03:53:00,
2013-07-25 22:58:00,61.0,59.0,30.10,SSW,205,0.0,0.0,93,0.00,,CLR,0.00,VWS V14.00,2013-07-26 03:58:00,
2013-07-25 23:00:00,61.2,59.2,30.10,SSW,205,0.0,0.0,93,0.00,,CLR,0.00,VWS V14.00,2013-07-26 04:00:00,
2013-07-25 23:01:00,60.9,58.6,30.10,SSW,205,0.0,0.0,92,0.00,,CLR,0.00,VWS V14.00,2013-07-26 04:01:00,
2013-07-25 23:02:00,60.9,58.6,30.10,SSW,205,0.0,0.0,92,0.00,,CLR,0.00,VWS V14.00,2013-07-26 04:02:00,
2013-07-25 23:07:00,60.8,58.5,30.10,SSW,205,0.0,0.0,92,0.00,,CLR,0.00,VWS V14.00,2013-07-26 04:07:00,
2013-07-25 23:12:00,60.7,58.4,30.10,SSW,205,0.0,0.0,92,0.00,,CLR,0.00,VWS V14.00,2013-07-26 04:12:00,
2013-07-25 23:17:00,60.7,58.7,30.11,SSW,205,0.0,0.0,93,0.00,,CLR,0.00,VWS V14.00,2013-07-26 04:17:00,
2013-07-25 23:22:00,60.6,58.6,30.11,SSW,205,0.0,0.0,93,0.00,,CLR,0.00,VWS V14.00,2013-07-26 04:22:00,
2013-07-25 23:27:00,60.5,58.5,30.11,SSW,205,0.0,0.0,93,0.00,,CLR,0.00,VWS V14.00,2013-07-26 04:27:00,
2013-07-25 23:30:00,60.6,58.6,30.11,SSW,205,0.0,0.0,93,0.00,,CLR,0.00,VWS V14.00,2013-07-26 04:30:00,
2013-07-25 23:31:00,60.3,58.3,30.11,SSW,205,0.0,0.0,93,0.00,,CLR,0.00,VWS V14.00,2013-07-26 04:31:00,
2013-07-25 23:37:00,60.2,58.2,30.11,SSW,205,0.0,0.0,93,0.00,,CLR,0.00,VWS V14.00,2013-07-26 04:37:00,
2013-07-25 23:42:00,60.1,58.1,30.11,SSW,205,0.0,0.0,93,0.00,,CLR,0.00,VWS V14.00,2013-07-26 04:42:00,
2013-07-25 23:47:00,59.9,57.9,30.11,SSW,205,0.0,0.0,93,0.00,,CLR,0.00,VWS V14.00,2013-07-26 04:47:00,
2013-07-25 23:52:00,59.8,57.8,30.10,SSW,205,0.0,0.0,93,0.00,,CLR,0.00,VWS V14.00,2013-07-26 04:52:00,
2013-07-25 23:57:00,59.7,57.7,30.10,SSW,205,0.0,0.0,93,0.00,,CLR,0.00,VWS V14.00,2013-07-26 04:57:00,